Regional Weather Roundup
Issued by NWS State College, PA

Home | Current Version | Previous Version | Graphics & Text | Print | Product List | Glossary Off
Versions: 1 2 3 4 5 6 7 8 9 10 11 12 13 14 15 16 17 18 19 20 21 22 23 24 25 26 27 28 29 30 31 32 33 34 35 36 37 38 39 40 41 42 43 44 45 46 47 48 49 50

000
ASUS41 KCTP 271603
RWRCTP

REGIONAL WEATHER ROUNDUP
NATIONAL WEATHER SERVICE STATE COLLEGE PA
1200 PM EDT THU AUG 27 2015

Note: "fair" indicates few or no clouds below 12,000 feet with no
significant weather and/or obstructions to visibility.

* = STATION THAT DOES NOT REPORT PRECIPITATION /E.G. RAIN...SNOW...ETC/
    THUNDER OR FOG.

PAZ002>004-007>009-013>016-020>023-029>032-271700-
WESTERN PENNSYLVANIA

CITY           SKY/WX    TMP DP  RH WIND       PRES   REMARKS
ERIE           CLOUDY    65  55  70 NW6       30.19R
MEADVILLE      CLOUDY    65  55  70 W8        30.20R
FRANKLIN*      CLOUDY    64  55  72 NW3       30.21S
NEW CASTLE     PTSUNNY   66  59  78 CALM      30.21R
BEAVER COUNTY  CLOUDY    66  55  68 CALM      30.20R
BUTLER*        CLOUDY    66  54  63 CALM      30.21S
PITTSBURGH INT CLOUDY    67  55  65 VRB6      30.19S
PITTSBURGH     CLOUDY    67  52  58 VRB5      30.19R
INDIANA*       CLOUDY    66  55  68 NW6       30.22R
LATROBE        PTSUNNY   68  55  64 CALM      30.20S
WASHINGTON CO* NOT AVBL
$$

PAZ004>006-010>012-017>019-024>028-033>037-041-042-045-046-049>053-271700-
CENTRAL PENNSYLVANIA

CITY           SKY/WX    TMP DP  RH WIND       PRES   REMARKS
BRADFORD       CLOUDY    60  52  74 NW9       30.19R
DUBOIS         CLOUDY    65  53  65 NW8       30.18S
CLEARFIELD     NOT AVBL
JOHNSTOWN      CLOUDY    62  51  67 W6        30.20S
ALTOONA        PTSUNNY   68  52  56 W5        30.18S
STATE COLLEGE  CLOUDY    66  54  63 CALM      30.16F
WILLIAMSPORT   CLOUDY    70  55  59 NW8       30.12F
SELINSGROVE    CLOUDY    69  56  62 CALM      30.14F
FT INDIANTOWN  PTSUNNY   73  56  55 N5        30.13F
CAPITAL CITY   MOSUNNY   74  54  49 N7        30.13F
HARRISBURG     MOSUNNY   74  55  51 VRB7      30.12F
YORK           MOSUNNY   72  57  59 NW9       30.14F
$$

PAZ038>040-043-044-047-048-054-055-060>062-067>071-271700-
EASTERN PENNSYLVANIA

CITY           SKY/WX    TMP DP  RH WIND       PRES   REMARKS
SCRANTON       CLOUDY    68  52  56 W7        30.13F
MOUNT POCONO   CLOUDY    64  51  62 NW12      30.14F
ALLENTOWN      MOSUNNY   74  55  51 NW9       30.11F
QUAKERTOWN*    MOSUNNY   73  55  53 N5        30.12F
READING        MOSUNNY   74  54  49 N10       30.11F
LANCASTER      MOSUNNY   73  55  53 VRB6      30.12F
COATESVILLE    MOSUNNY   72  57  60 NW8       30.14S
POTTSTOWN      PTSUNNY   73  57  57 NW8       30.13S
BLUE BELL      MOSUNNY   77  59  53 N6        30.10F
DOYLESTOWN     PTSUNNY   72  55  55 N9        30.10F
WILLOW GROVE   NOT AVBL
NORTH PHILA    MOSUNNY   78  54  43 NW8       30.11F
PHILADELPHIA   PTSUNNY   77  53  43 NW6       30.10F
$$



USA.gov is the U.S. government's official web portal to all federal, state and local government web resources and services.